Location: Greenwood School (historical)
(37.6273°N, 96.1236°W)
Time: 00:41:35
(UTC+00:00)

Daily predictions for brighter satellites

Satellite Brightness Start Highest point End
(mag) Time Altitude Azimuth Time Altitude Azimuth Time Altitude Azimuth
GPS 2-04 Rocket1 3.2 02:06:29 10° W 02:09:38 36° SSW 02:12:51 10° SE
STARLINK-1079 4.2 02:06:01 10° WNW 02:10:03 52° SW 02:14:03 10° SSE
DMSP B5D2-2 4.3 02:05:35 10° NNE 02:10:45 54° E 02:15:52 10° S
ASTEX 1 3.6 02:06:15 10° S 02:11:09 82° W 02:16:06 10° N
Cosmos 1331 Rocket 4.3 02:07:34 10° S 02:12:25 44° ESE 02:17:20 10° NNE
Cosmos 2279 Rocket 4.3 02:08:27 10° N 02:14:29 50° E 02:20:27 10° SSE
STARLINK-1116 4.4 02:11:02 10° WNW 02:15:01 46° SW 02:18:58 10° SSE
CZ-2C R/B 3.9 02:10:30 10° S 02:16:00 59° W 02:21:43 10° NNW
STARLINK-1101 4.5 02:18:20 10° NW 02:22:16 41° NE 02:26:12 10° ESE
SL-8 R/B 4.4 02:18:47 10° NW 02:23:26 48° NNE 02:28:06 10° ESE
MONITOR-E 3.9 02:21:44 10° S 02:24:15 68° WSW 02:26:47 10° NNW
USA 186 2.8 02:21:43 10° S 02:24:16 39° W 02:27:01 10° NNW
STARLINK-1102 4.3 02:23:17 10° NW 02:27:16 45° NE 02:31:12 10° ESE
STARLINK-29 3.0 02:26:54 10° SW 02:30:08 85° NW 02:33:23 10° NE
SPOT 3 Rocket 3.6 02:26:45 10° SSE 02:31:50 66° ENE 02:36:58 10° N
STARLINK-1111 4.2 02:28:15 10° NW 02:32:17 49° NE 02:36:00 12° ESE
NOSS 2-2 (D) 4.2 02:30:24 10° SW 02:33:51 49° NW 02:37:31 10° NNE
SL-4 R/B 2.9 02:29:26 10° WSW 02:33:58 63° NW 02:38:44 10° NE
COSMOS 2455 4.4 02:32:32 11° SE 02:35:04 14° ESE 02:37:57 10° ENE
deb Kosmos-1763 4.2 02:32:02 10° N 02:35:33 54° ENE 02:38:41 13° SSE
ARGOS 4.1 02:31:30 10° S 02:36:40 48° W 02:41:54 10° NNW
STARLINK-1073 4.0 02:33:12 10° NW 02:37:16 54° NE 02:40:47 13° ESE
H-2A R/B 3.6 02:33:33 10° SSW 02:38:11 35° W 02:42:59 10° NNW
ASTRO E2 4.1 02:35:18 10° WSW 02:38:30 23° SSW 02:41:02 13° SSE
CZ-2C R/B 2.8 02:33:51 10° NNE 02:39:30 86° WNW 02:45:04 10° SSW
BREEZE-M DEB (TANK) 3.0 02:39:05 10° SSW 02:41:14 32° SE 02:45:19 10° ENE
ISS -1.2 02:40:23 10° W 02:42:07 13° SW 02:43:52 10° SSW
STARLINK-1121 3.9 02:38:08 10° NW 02:42:15 60° NE 02:45:34 15° ESE
Cosmos 1437 Rocket 3.1 02:38:51 10° SSW 02:42:36 67° W 02:46:26 10° N
STARLINK-1320 3.8 02:41:58 10° SSW 02:44:39 27° SE 02:47:22 10° ENE
Cosmos 1943 Rocket 2.2 02:39:31 10° S 02:44:58 63° ESE 02:50:29 10° NNE
STARLINK-1322 3.8 02:42:19 10° SSW 02:45:01 27° SE 02:47:43 10° ENE
STARLINK-1324 3.7 02:42:37 10° SSW 02:45:19 28° SE 02:48:03 10° ENE
STARLINK-1294 3.7 02:42:57 10° SSW 02:45:38 28° SE 02:48:21 10° ENE
STARLINK-1261 3.7 02:43:18 10° SSW 02:46:01 28° SE 02:48:45 10° ENE
STARLINK-1325 3.7 02:43:38 10° SSW 02:46:21 28° SE 02:49:06 10° ENE
STARLINK-1333 3.7 02:44:00 10° SSW 02:46:44 29° SE 02:49:29 10° ENE
STARLINK-1334 3.7 02:44:16 10° SSW 02:47:00 29° SE 02:49:46 10° ENE
STARLINK-1106 3.8 02:43:06 10° NW 02:47:14 66° NE 02:50:20 17° ESE
STARLINK-1326 3.7 02:44:35 10° SSW 02:47:20 29° SE 02:50:05 10° ENE
STARLINK-1323 3.7 02:44:58 10° SSW 02:47:42 29° SE 02:50:29 10° ENE
STARLINK-1349 3.6 02:45:15 10° SSW 02:48:01 30° SE 02:50:47 10° ENE
STARLINK-1336 3.6 02:45:34 10° SSW 02:48:20 30° SE 02:51:06 10° ENE
STARLINK-1331 3.6 02:45:56 10° SSW 02:48:43 30° SE 02:51:30 10° ENE
STARLINK-1344 3.6 02:46:14 10° SSW 02:49:01 30° SE 02:51:48 10° ENE
STARLINK-1343 3.6 02:46:36 10° SSW 02:49:23 31° SE 02:52:12 10° ENE
STARLINK-1346 3.6 02:46:53 10° SSW 02:49:40 31° SE 02:52:29 10° ENE
STARLINK-1328 3.6 02:47:18 10° SSW 02:50:06 31° SE 02:52:55 10° ENE
STARLINK-1354 3.5 02:47:35 10° SSW 02:50:23 31° SE 02:53:12 10° ENE
STARLINK-1347 3.5 02:47:52 10° SSW 02:50:41 32° SE 02:53:30 10° ENE
STARLINK-1357 3.5 02:48:18 10° SSW 02:51:07 32° SE 02:53:56 10° ENE
STARLINK-1335 3.5 02:48:34 10° SSW 02:51:23 32° SE 02:54:14 10° ENE
STARLINK-1327 3.5 02:48:55 10° SSW 02:51:45 33° SE 02:54:34 10° ENE
STARLINK-1390 4.4 02:48:29 10° S 02:51:55 28° SE 02:55:23 10° ENE
STARLINK-1340 3.5 02:49:12 10° SSW 02:52:01 33° SE 02:54:52 10° ENE
STARLINK-1112 3.7 02:48:05 10° NW 02:52:14 73° NE 02:55:08 19° SE
STARLINK-1356 3.5 02:49:35 10° SSW 02:52:25 33° SE 02:55:16 10° ENE
STARLINK-1345 3.5 02:49:53 10° SSW 02:52:44 33° SE 02:55:35 10° ENE
STARLINK-1355 3.4 02:50:14 10° SSW 02:53:05 34° SE 02:55:57 10° ENE
STARLINK-1321 3.4 02:50:35 10° SSW 02:53:26 34° SE 02:56:18 10° ENE
STARLINK-1358 3.4 02:50:57 10° SSW 02:53:49 34° SE 02:56:41 10° ENE
NOSS 3-4 (A) 3.8 02:48:41 10° S 02:54:01 37° ESE 02:59:33 10° NE
STARLINK-1332 3.4 02:51:14 10° SSW 02:54:06 35° SE 02:56:59 10° ENE
NOSS 3-4 (C) 3.8 02:48:48 10° S 02:54:07 36° ESE 02:59:39 10° NE
STARLINK-1348 3.4 02:51:34 10° SSW 02:54:26 35° SE 02:57:19 10° ENE
STARLINK-1330 3.4 02:51:53 10° SSW 02:54:45 35° SE 02:57:39 10° ENE
STARLINK-1363 3.4 02:52:13 10° SSW 02:55:06 36° SE 02:57:59 10° ENE
STARLINK-1337 3.4 02:52:35 10° SSW 02:55:28 36° SE 02:58:22 10° ENE
STARLINK-1342 3.3 02:52:53 10° SSW 02:55:47 36° SE 02:58:41 10° ENE
ATLAS CENTAUR R/B 2.3 02:51:58 10° S 02:55:52 29° ESE 02:59:36 10° NE
STARLINK-1364 3.3 02:53:13 10° SSW 02:56:07 37° SE 02:59:01 10° ENE
STARLINK-1376 3.3 02:53:33 10° SSW 02:56:27 37° SE 02:59:22 10° ENE
Okean 1 Rocket 3.3 02:52:15 10° N 02:56:36 52° E 02:59:41 18° SSE
STARLINK-1360 3.3 02:53:54 10° SSW 02:56:48 37° SE 02:59:42 10° ENE
STARLINK-1361 3.3 02:54:14 10° SSW 02:57:08 38° SE 03:00:03 10° ENE
Okean 2 4.4 02:55:04 19° SE 02:57:10 29° E 03:00:47 10° NNE
STARLINK-1128 3.6 02:53:02 10° NW 02:57:11 81° NE 02:59:54 21° SE
Lacrosse 5 3.9 02:53:38 10° WNW 02:57:17 20° WSW 03:00:56 10° SSW
STARLINK-1367 3.3 02:54:31 10° SSW 02:57:25 38° SE 03:00:21 10° ENE
STARLINK-1366 3.3 02:54:52 10° SSW 02:57:47 38° SE 03:00:43 10° ENE
STARLINK-1365 4.2 02:54:15 10° SSW 02:57:53 32° SE 03:01:32 10° ENE
STARLINK-1113 3.6 02:58:01 10° NW 03:02:11 89° NE 03:04:42 23° SE
Cosmos 1656 Rocket 4.5 03:00:25 16° SSE 03:03:52 30° ESE 03:08:39 10° NE
STARLINK-52 4.4 03:02:27 10° WSW 03:05:29 40° NW 03:08:33 10° NE
Cosmos 1900 4.5 03:00:39 10° NNW 03:05:43 69° ENE 03:09:01 22° SE
Cosmos 1766 4.2 03:02:38 10° NNE 03:06:16 33° ENE 03:07:53 24° ESE
STARLINK-1119 3.6 03:03:00 10° NW 03:07:09 83° SW 03:09:28 25° SE
STARLINK-1338 3.9 03:04:02 10° SSW 03:07:45 39° SE 03:11:28 10° ENE
STARLINK-1114 3.6 03:07:59 10° NW 03:12:07 75° SW 03:14:16 27° SE
STARLINK-1371 3.7 03:12:03 10° SSW 03:15:50 47° SE 03:19:38 10° ENE
STARLINK-1130 (DARKSAT) 3.7 03:12:57 10° NW 03:17:05 67° SW 03:19:02 29° SSE
MetOp-B 4.1 03:13:45 21° SSE 03:17:25 73° ENE 03:22:46 10° N
Cosmos 1378 3.1 03:16:05 15° S 03:19:05 82° W 03:22:47 10° N
STARLINK-1341 3.6 03:16:22 10° SSW 03:20:13 51° SE 03:24:04 10° ENE
Cosmos 2082 Rocket 4.0 03:15:46 10° NW 03:20:23 26° WSW 03:25:00 10° SSW
Cosmos 2369 Rocket 2.2 03:15:43 10° SSW 03:21:23 90° S 03:27:04 10° NNE
ATLAS 2AS CENTAUR R/B 3.0 03:13:41 10° SSW 03:21:29 69° ESE 03:29:25 10° NE
Resurs 01 Rocket 2.1 03:18:11 15° S 03:21:44 57° W 03:26:07 10° NNW
STARLINK-1084 3.8 03:17:58 10° NW 03:22:03 60° SW 03:23:49 31° SSE
Milstar 3 Cent rocket 3.9 03:15:11 10° SW 03:22:08 42° SSE 03:35:52 10° E
USA 245 2.7 03:23:08 42° ENE 03:23:08 42° ENE 03:25:25 10° N
Abrixas rocket 3.4 03:20:47 10° W 03:23:15 24° SW 03:23:41 23° SSW
STARLINK-1374 3.5 03:20:57 10° SSW 03:24:50 57° SE 03:28:46 10° NE
NOSS 3-2 (A) 4.1 03:19:06 10° NNW 03:26:53 78° ENE 03:32:28 24° SE
STARLINK-1098 4.0 03:22:57 10° WNW 03:27:00 54° SW 03:28:35 32° SSE
STARLINK-1339 3.4 03:24:55 10° SW 03:28:49 63° SE 03:32:45 10° NE
Cosmos 2026 Rocket 4.2 03:25:23 23° SSE 03:29:15 53° E 03:35:25 10° NNE
STARLINK-1123 4.1 03:27:59 10° WNW 03:31:58 48° SW 03:33:23 33° S
STARLINK-1377 3.4 03:29:34 10° SW 03:33:33 70° SE 03:37:31 10° NE
SAR-Lupe-2 3.5 03:30:13 10° NNE 03:33:49 89° WNW 03:35:30 30° SSW
SPOT 5 3.8 03:34:48 28° ESE 03:36:52 39° ENE 03:41:49 10° N
STARLINK-1097 4.3 03:33:00 10° WNW 03:36:56 43° SW 03:38:10 33° S
STARLINK-1353 3.3 03:33:55 10° SW 03:37:53 78° SE 03:41:53 10° NE
Cosmos 1805 3.2 03:34:03 10° N 03:37:59 79° W 03:39:28 36° S
Terra 3.0 03:38:15 24° E 03:39:32 27° ENE 03:43:32 10° NNE
Spot 2 Rocket 3.4 03:38:20 29° S 03:40:59 84° WSW 03:46:03 10° NNW
STARLINK-1099 4.5 03:38:00 10° WNW 03:41:52 39° SW 03:42:56 32° SSW
USA 238 DEB 3.8 03:34:43 10° NNW 03:42:02 88° WSW 03:46:14 29° SSE
USA 238 3.9 03:34:49 10° NNW 03:42:09 89° WSW 03:46:20 29° SSE
STARLINK-1375 3.4 03:38:17 10° SW 03:42:16 85° SE 03:46:17 10° NE
Cosmos 1470 4.0 03:41:14 10° NNE 03:44:31 26° ENE 03:44:31 26° ENE
STARLINK-1350 3.4 03:42:37 10° SW 03:46:37 87° NW 03:50:39 10° NE
Cosmos 1733 3.0 03:43:14 10° N 03:47:02 85° E 03:47:46 56° SSE
SL-27 R/B 2.2 03:43:55 10° NNW 03:47:28 84° ENE 03:47:48 70° SE
STARLINK-1226 4.4 03:47:23 10° NNW 03:50:12 28° NE 03:50:39 27° NE
STARLINK-1352 3.5 03:46:43 10° SW 03:50:42 80° NW 03:54:43 10° NE
Cosmos 1842 3.2 03:49:38 41° SSW 03:50:54 79° W 03:54:48 10° N
STARLINK-1215 4.4 03:48:29 10° NNW 03:51:22 29° NE 03:51:47 28° NE
STARLINK-1217 4.3 03:50:48 10° NNW 03:53:43 30° NE 03:54:03 29° NE
STARLINK-1229 4.3 03:51:58 10° NNW 03:54:53 30° NE 03:55:09 30° NE
STARLINK-1368 3.7 03:51:31 10° SW 03:55:31 73° NW 03:59:31 10° NE
STARLINK-1270 4.3 03:52:42 10° NNW 03:55:35 30° NE 03:55:46 30° NE
VEP-3 4.1 03:51:18 10° SW 04:06:30 - E 03:53:39 18° SSW
CZ-4B DEB 4.2 03:56:49 90° ESE 03:56:49 90° ESE 04:00:10 10° NNW
Cosmos 1025 Rocket 3.5 03:58:04 40° E 03:58:04 40° E 04:02:02 10° NNE
STARLINK-1189 4.2 03:55:34 10° NNW 03:58:32 33° NE 03:58:40 33° NE
STARLINK-1188 4.2 03:56:48 10° NNW 03:59:48 34° NE 03:59:52 34° NE
STARLINK-1369 3.8 03:55:59 10° WSW 03:59:58 66° NW 04:03:59 10° NE
Cosmos 1975 Rocket 3.7 03:59:16 24° SSW 04:01:42 53° W 04:06:01 10° N
STARLINK-1191 4.1 03:59:26 10° NNW 04:02:21 35° NNE 04:02:21 35° NNE
STARLINK-1221 4.1 04:00:06 10° NNW 04:02:54 35° NNE 04:02:54 35° NNE
Cosmos 1271 Rocket 2.6 04:03:20 69° E 04:03:22 69° E 04:07:18 10° NNE
STARLINK-1372 4.1 04:00:01 10° WSW 04:04:14 62° NW 04:08:20 10° NE
RESURS DK-1 3.9 04:05:59 24° ENE 04:05:59 24° ENE 04:08:06 10° NE
STARLINK-1222 4.1 04:01:57 10° NNW 04:04:47 37° NNE 04:04:47 37° NNE
STARLINK-1214 4.1 04:02:44 10° NNW 04:05:31 37° NNE 04:05:31 37° NNE
SL-8 R/B 4.5 04:01:30 10° WNW 04:05:53 36° SW 04:06:28 35° SSW
Cosmos 1174 3.6 04:06:18 60° WNW 04:06:23 61° WNW 04:09:53 10° NNE
Cosmos 1242 Rocket 3.0 04:08:21 52° WSW 04:08:53 59° W 04:12:32 10° N
STARLINK-1378 4.2 04:04:58 10° WSW 04:08:54 55° NW 04:12:52 10° NE
Cosmos 1655 Rocket 4.3 04:08:49 40° SE 04:10:18 48° E 04:16:16 10° NNE
Cosmos 1953 3.9 04:07:26 10° NNE 04:10:06 23° ENE 04:10:06 23° ENE
STARLINK-1379 4.4 04:09:31 10° WSW 04:13:26 50° NW 04:17:21 10° NE
ATLAS 3B CENTAUR R/B 3.7 03:59:19 10° W 04:14:44 47° SSW 04:17:40 37° SSE
SPOT 1/Viking Rocket 4.0 04:13:01 35° SSW 04:14:54 55° W 04:19:57 10° NNW
Cosmos 1707 3.0 04:15:53 58° NE 04:15:53 58° NE 04:19:16 10° NNE
CENTAUR R/B 3.2 04:07:29 10° NNW 04:15:51 88° ENE 04:19:52 38° SSE
COSMOS 2455 2.9 04:15:31 17° SSW 04:20:11 79° WNW 04:26:15 10° NNE
STARLINK-1209 3.8 04:18:10 10° NW 04:20:56 53° NW 04:20:56 53° NW
Cosmos 1486 Rocket 4.2 04:16:42 10° NNW 04:21:55 63° WSW 04:23:10 48° SSW
ATLAS 3B R/B 3.3 04:17:41 10° NNW 04:24:17 48° NE 04:27:03 33° ESE
Cosmos 1354 Rocket 4.1 04:19:02 10° NNW 04:24:20 64° ENE 04:25:09 56° ESE
STARLINK-1187 4.4 04:25:14 10° NW 04:27:26 39° NW 04:27:26 39° NW
Cosmos 1758 3.4 04:25:59 10° N 04:29:47 77° N 04:29:47 77° N
Cosmos 1455 Rocket 3.9 04:30:27 10° NNW 04:34:32 41° W 04:35:05 39° WSW
ATLAS CENTAUR R/B 3.5 04:31:01 10° WSW 04:34:45 26° NW 04:38:18 10° N
Meteor 2-19 Rocket 4.4 04:38:54 56° SE 04:39:49 63° E 04:45:51 10° NNE
CARTOSAT-1 4.5 04:39:39 38° WSW 04:40:00 38° W 04:44:03 10° NNW
ERS-1 Rocket 3.7 04:39:06 37° SW 04:40:10 43° W 04:44:58 10° NNW
NOSS 3-2 (C) 4.3 04:32:28 10° NW 04:40:12 61° WSW 04:43:15 40° S
CZ-4C R/B 4.3 04:47:00 12° ENE 04:47:00 12° ENE 04:47:32 10° ENE
Cosmos 1833 4.2 04:40:26 10° NNW 04:46:00 65° WSW 04:46:47 58° SSW
Cosmos 1417 Rocket 4.5 04:41:03 10° N 04:47:25 80° W 04:48:57 55° S
Cosmos 2098 Rocket 4.5 04:54:00 51° SE 04:55:24 59° E 05:02:40 10° NNE
Cosmos 968 Rocket 4.4 04:52:53 10° NW 04:57:32 36° W 04:58:00 35° WSW
Meteor 1-16 Rocket 3.9 04:58:07 10° N 05:03:33 79° E 05:03:34 79° E
Meteor 2-15 4.3 04:58:57 10° N 05:05:03 69° E 05:05:36 65° ESE
Exosat Rocket 4.0 04:57:34 10° NNW 05:05:44 84° ENE 05:06:47 65° SE
Cosmos 1867 4.1 05:02:20 10° NW 05:07:28 46° WSW 05:07:28 46° WSW
Cosmos 1726 3.6 05:04:49 10° NNW 05:07:12 37° NNW 05:07:12 37° NNW
Timation 2 Rocket 4.2 05:02:44 10° NNW 05:08:49 54° ENE 05:09:37 51° E
Cosmos 1674 4.2 05:12:38 33° N 05:12:38 33° N 05:14:50 10° N
BREEZE-M DEB (TANK) 3.3 05:05:20 10° WSW 05:13:56 55° NW 05:17:06 10° NE
Cosmos 2227 Rocket 4.0 05:09:46 10° N 05:13:56 20° NE 05:15:33 18° ENE
Terra 3.2 05:17:08 28° W 05:17:10 28° W 05:21:15 10° NW
S3M 4.3 05:13:53 10° NNW 05:19:55 55° W 05:20:58 49° SW
Cosmos 1777 Rocket 4.1 05:15:51 10° NNW 05:20:48 72° NE 05:20:48 72° NE
Cosmos 2315 Rocket 3.8 05:19:17 10° N 05:25:32 79° E 05:25:55 76° SE
Meteor 2-15 Rocket 4.3 05:21:26 10° N 05:27:35 84° E 05:27:52 80° SE
Cosmos 1340 Rocket 4.5 05:27:32 10° NNW 05:30:09 30° WNW 05:30:09 30° WNW
Thor Agena Rocket 3.9 05:26:34 10° N 05:31:43 56° WNW 05:32:02 55° W
BREEZE-M DEB (TANK) 3.7 05:24:15 10° NW 05:31:48 65° NW 05:31:48 65° NW
Meteor 2-5 Rocket 3.6 05:36:00 83° N 05:36:00 83° N 05:41:27 10° N
Cosmos 1626 4.3 05:38:59 23° NNE 05:38:59 23° NNE 05:40:32 10° NNE
Cosmos 1606 Rocket 4.5 05:33:49 10° N 05:36:55 46° NNW 05:36:55 46° NNW
Cosmos 2058 Rocket 4.2 05:35:50 10° N 05:38:59 38° NE 05:38:59 38° NE
ALOS 2 3.6 05:44:08 43° NNE 05:44:08 43° NNE 05:47:19 10° N
SeaSat 1 2.7 05:42:15 10° NNE 05:46:39 65° NNW 05:46:39 65° NNW
Cosmos 921 Rocket 4.4 05:56:35 36° NW 05:56:35 36° NW 05:59:49 10° N
Cosmos 1980 Rocket 4.0 05:57:04 19° E 05:57:04 19° E 05:59:49 10° NE
Lacrosse 4 Rocket 3.6 05:53:09 10° N 05:56:09 19° NE 05:56:09 19° NE
FALCON 9 R/B 4.3 06:03:08 24° ESE 06:03:08 24° ESE 06:07:45 10° E
Meteor 2-21 4.4 06:01:16 72° W 06:01:28 73° W 06:07:41 10° N
Cosmos 2369 4.4 06:07:49 44° ENE 06:07:49 44° ENE 06:12:10 10° NNE
Helios 1A 4.3 06:14:00 37° N 06:14:00 37° N 06:16:40 10° N
Cosmos 1656 3.8 06:13:31 70° NW 06:13:31 70° NW 06:18:51 10° NNE
ATLAS 3B R/B 3.7 06:08:45 10° NW 06:14:17 32° WSW 06:14:17 32° WSW
Cosmos 1745 Rocket 4.0 06:15:24 68° E 06:15:24 68° E 06:21:21 10° NNE
Meteor 1-24 Rocket 4.1 06:15:46 51° WNW 06:15:46 51° WNW 06:20:52 10° N
Cosmos 1898 Rocket 4.3 06:11:18 10° N 06:16:14 44° ENE 06:16:14 44° ENE
Cosmos 2297 Rocket 2.3 06:14:53 10° NNW 06:20:07 74° N 06:20:07 74° N
Cosmos 2219 3.4 06:19:18 10° NNW 06:24:10 64° NW 06:24:10 64° NW
SJ 16-02 2.5 06:24:24 10° NNW 06:27:25 41° N 06:27:25 41° N
CZ-4C R/B 2.5 06:32:08 53° NW 06:32:08 53° NW 06:37:35 10° NNE
Cosmos 2082 4.1 06:29:46 10° NNW 06:35:17 52° ENE 06:35:31 52° ENE
Cosmos 1386 Rocket 4.3 06:37:45 85° WNW 06:37:45 85° WNW 06:43:59 10° N
Cosmos 841 Rocket 4.2 06:39:02 48° ENE 06:39:02 48° ENE 06:43:07 10° NNE
Cosmos 1697 Rocket 2.8 06:41:27 74° NNW 06:41:27 74° NNW 06:46:47 10° NNE
Cosmos 2278 3.9 06:43:42 63° ENE 06:43:42 63° ENE 06:48:41 10° NNE
Cosmos 1763 Rocket 3.9 06:45:58 55° NNW 06:45:58 55° NNW 06:50:17 10° N
Meteor 2-1 Rocket 4.2 06:39:53 10° N 06:45:07 76° NNE 06:45:07 76° NNE
Cosmos 1570 Rocket 4.3 06:46:31 63° NE 06:46:31 63° NE 06:51:01 10° NNE
Resurs 1-4 Rocket 4.2 06:44:55 10° NE 06:48:01 15° E 06:48:08 15° E
Cosmos 2227 Rocket 2.7 06:52:48 10° NNW 06:57:21 49° WNW 06:57:21 49° WNW
CZ-4 R/B 4.4 06:57:51 10° N 07:01:36 52° NNW 07:01:36 52° NNW
Cosmos-2242 4.3 06:58:40 10° N 07:01:42 37° NE 07:01:42 37° NE
Cosmos 1709 Rocket 3.8 07:03:41 86° SSW 07:03:50 90° W 07:10:02 10° N
Gblst 52 Del rocket 4.4 07:04:38 67° ESE 07:04:38 67° ESE 07:11:00 10° NE
Cosmos 2208 Rocket 4.1 07:05:38 72° N 07:05:38 72° N 07:10:27 10° NNE
SL-16 R/B 3.6 07:10:10 26° ESE 07:10:10 26° ESE 07:14:46 10° NE
USA 81 4.1 07:12:56 71° NNW 07:12:56 71° NNW 07:17:44 10° N
SL-16 R/B 4.0 07:10:44 19° ESE 07:14:05 30° ENE 07:19:20 10° N
Cosmos 489 Rocket 4.4 07:16:05 70° SE 07:16:25 72° ESE 07:22:39 10° NNE
Helios 1B rocket 3.8 07:12:56 10° N 07:15:40 34° NNW 07:15:40 34° NNW
Cosmos 540 Rocket 3.8 07:20:21 59° NW 07:20:21 59° NW 07:25:00 10° N
CZ-2D R/B 3.3 07:15:34 10° NE 07:20:07 30° E 07:20:19 30° E
Meteor 2-10 Rocket 3.8 07:15:35 10° NNW 07:19:45 55° NW 07:19:45 55° NW
Cosmos 1455 4.1 07:17:56 10° NNW 07:19:41 26° NNW 07:19:41 26° NNW
Cosmos 2285 Rocket 3.8 07:24:29 10° NNW 07:30:50 75° WSW 07:31:12 72° SW
Cosmos 2360 Rocket 4.2 07:31:03 15° ESE 07:32:11 16° E 07:35:27 10° ENE
Lacrosse 4 Rocket 3.6 07:31:06 10° NW 07:32:26 18° NW 07:32:26 18° NW
SL-4 R/B 4.5 07:32:41 10° NW 07:36:47 26° NNE 07:40:46 10° E
Cosmos 1980 Rocket 2.7 07:38:49 46° WNW 07:39:16 47° WNW 07:44:44 10° N
USA 215 3.2 07:37:06 28° SE 07:40:56 87° NE 07:47:32 10° NW
STARLINK-1302 4.4 07:48:16 50° NE 07:48:16 50° NE 07:51:24 10° NE
STARLINK-1299 4.3 07:48:10 54° NNE 07:48:10 54° NNE 07:51:41 10° NE
Cosmos 2074 Rocket 3.9 07:50:08 61° S 07:51:20 84° E 07:57:38 10° N
STARLINK-1273 4.3 07:53:02 54° NNE 07:53:02 54° NNE 07:56:22 10° NE
Meteor 1-11 4.1 07:53:04 67° WSW 07:53:25 69° W 07:59:00 10° N
ADEOS II 3.7 07:52:22 10° NE 07:56:39 25° E 07:58:25 21° SE
STARLINK-1288 4.2 07:57:48 56° N 07:57:48 56° N 08:01:19 10° NE
Cosmos 2263 Rocket 2.5 07:54:28 10° NNW 08:00:01 60° ENE 08:02:25 33° SE
Cosmos 372 Rocket 4.0 07:55:38 10° NNW 08:00:26 63° W 08:00:26 63° W
STARLINK-1308 4.1 08:02:38 55° NNW 08:02:38 55° NNW 08:06:20 10° NE
Timation 1 Rocket 4.2 08:01:27 10° NNW 08:07:25 76° WSW 08:08:33 59° S
NPP 3.6 08:02:32 10° NNE 08:07:57 76° ESE 08:08:53 60° SSE
Cosmos 1400 Rocket 3.8 08:04:10 10° NNW 08:07:07 40° NW 08:07:07 40° NW
DELTA 2 DEB (DPAF) 4.5 08:10:53 53° WNW 08:10:53 53° WNW 08:14:41 10° NNW
BREEZE M DEB (TANK) 3.1 08:11:17 64° E 08:11:17 64° E 08:17:18 10° ESE
STARLINK-1304 4.2 08:12:11 49° NW 08:12:11 49° NW 08:16:13 10° NE
Cosmos 2150 Rocket 3.9 08:10:25 10° NNW 08:15:31 64° WSW 08:15:38 64° WSW
STARLINK-45 4.4 08:17:45 38° E 08:17:45 38° E 08:20:16 10° ENE
Cosmos 2184 Rocket 4.0 08:15:33 51° SW 08:16:50 63° W 08:22:57 10° N
Cosmos 2322 Rocket 2.1 08:16:57 59° SSW 08:18:04 85° ESE 08:23:43 10° NNE
Cosmos 2327 Rocket 4.5 08:16:24 49° S 08:18:19 88° W 08:24:44 10° N
BREEZE-M DEB (TANK) 3.1 08:17:42 56° WSW 08:18:40 80° NNW 08:30:30 10° NE
In-Cosmos 22 Rocket 4.4 08:18:09 44° SSE 08:19:48 65° E 08:25:15 10° NNE
STARLINK-76 4.3 08:20:46 39° E 08:20:46 39° E 08:23:22 10° ENE
NOSS 2-1 (C) 4.2 08:21:21 34° NNW 08:21:21 34° NNW 08:24:03 10° NNE
STARLINK-70 4.2 08:21:49 44° E 08:21:49 44° E 08:24:36 10° NE
STARLINK-23 4.2 08:22:21 41° E 08:22:21 41° E 08:25:01 10° NE
STARLINK-32 4.3 08:23:05 40° E 08:23:05 40° E 08:25:36 10° NE
Iridium 2 3.8 08:19:15 10° N 08:22:42 71° NNE 08:22:42 71° NNE
STARLINK-1048 4.4 08:24:51 41° ESE 08:24:51 41° ESE 08:28:25 10° ENE
STARLINK-40 4.0 08:25:28 46° E 08:25:28 46° E 08:28:16 10° NE
Cosmos 1610 Rocket 4.4 08:23:02 49° SSW 08:24:51 83° W 08:31:04 10° N
NOSS 2-1 (D) 4.3 08:26:07 31° NW 08:26:07 31° NW 08:28:53 10° NNE
STARLINK-44 3.9 08:26:59 49° E 08:26:59 49° E 08:29:52 10° NE
STARLINK-37 3.8 08:28:43 56° ENE 08:28:43 56° ENE 08:31:43 10° NE
Resurs 1-4 Rocket 2.3 08:22:57 10° N 08:28:10 59° WNW 08:29:13 49° WSW
Cosmos 1125 Rocket 3.3 08:23:09 10° NNW 08:28:22 82° WSW 08:29:46 50° S
USA 229 DEB 3.9 08:21:55 10° NNW 08:29:20 82° ENE 08:37:02 10° SE
USA 229 3.9 08:22:02 10° NNW 08:29:26 82° ENE 08:37:08 10° SE
STARLINK-1049 4.2 08:29:39 46° ESE 08:29:39 46° ESE 08:33:27 10° ENE
STARLINK-36 3.7 08:30:07 55° E 08:30:07 55° E 08:33:07 10° NE
NOSS 3-1 (C) 4.1 08:22:17 10° NNW 08:30:09 90° W 08:39:01 10° SSE
STARLINK-63 3.5 08:33:07 63° ENE 08:33:07 63° ENE 08:36:15 10° NE
STARLINK-35 3.6 08:33:51 58° ENE 08:33:51 58° ENE 08:36:49 10° NE
STARLINK-1051 3.9 08:34:24 52° SE 08:34:24 52° SE 08:38:26 10° ENE
STARLINK-51 3.4 08:36:10 68° ENE 08:36:10 68° ENE 08:39:23 10° NE
CZ-4C R/B 4.2 08:37:08 41° W 08:37:08 41° W 08:40:58 10° NNW
STARLINK-30 3.3 08:37:59 74° ENE 08:37:59 74° ENE 08:41:21 10° NE
STARLINK-72 3.3 08:38:29 69° ENE 08:38:29 69° ENE 08:41:38 10° NE
NOSS 3-1 (A) 4.4 08:30:41 10° NNW 08:38:29 71° NE 08:47:16 10° SE
GEOS 3 Rocket 4.4 08:34:31 10° SE 08:39:32 53° NE 08:44:39 10° NNW
STARLINK-59 3.2 08:41:41 76° NNE 08:41:41 76° NNE 08:44:58 10° NE
Cosmos 2221 2.5 08:38:51 10° NNW 08:43:10 61° W 08:43:34 58° WSW
Cosmos 1315 Rocket 2.8 08:40:20 10° NNW 08:44:05 58° W 08:44:05 58° W
STARLINK-56 3.1 08:44:14 84° NNW 08:44:14 84° NNW 08:47:50 10° NE
STARLINK-1028 3.6 08:43:58 61° SSE 08:44:19 65° SE 08:48:26 10° NE
Cosmos 2237 4.2 08:42:34 40° S 08:44:42 76° ESE 08:50:26 10° NNE
STARLINK-73 3.1 08:45:48 80° NW 08:45:50 81° NW 08:49:28 10° NE
Cosmos 962 Rocket 4.4 08:43:25 34° S 08:46:20 85° E 08:52:33 10° N
STARLINK-38 3.2 08:47:22 76° WNW 08:47:29 77° NW 08:51:06 10° NE
STARLINK-65 3.2 08:48:56 72° WNW 08:49:06 75° NW 08:52:43 10° NE
STARLINK-1021 3.5 08:48:47 62° S 08:49:19 73° SE 08:53:27 10° NE
STARLINK-68 3.3 08:49:50 64° WNW 08:50:04 67° NW 08:53:40 10° NE
STARLINK-53 3.3 08:50:34 64° WNW 08:50:49 67° NW 08:54:26 10° NE
Cosmos 2154 Rocket 4.2 08:49:02 36° SW 08:51:14 53° W 08:57:18 10° N
IRIDIUM 104 4.2 08:49:35 41° SSW 08:51:23 75° W 08:56:37 10° N
Cosmos 1842 Rocket 4.1 08:47:31 10° NNW 08:51:40 39° W 08:51:47 39° W
Cosmos 2058 3.1 08:51:49 51° WSW 08:52:20 54° W 08:56:29 10° N
IRS-P3 4.2 08:47:09 10° NNE 08:52:30 77° ESE 08:54:58 33° S
STARLINK-1010 3.6 08:52:14 58° SW 08:53:02 83° SE 08:57:16 10° NE
Cosmos 773 Rocket 4.1 08:51:33 34° S 08:53:47 69° ESE 08:59:03 10° NNE
SL-16 R/B 2.9 08:52:02 30° WSW 08:53:59 40° WNW 08:59:19 10° N
STARLINK-1019 3.5 08:53:32 59° SSW 08:54:16 81° SE 08:58:25 10° NE
Cosmos 1844 Rocket 4.3 08:49:13 10° N 08:54:19 35° ENE 08:59:22 10° SE
STARLINK-50 3.4 08:55:04 58° W 08:55:38 70° NW 08:59:26 10° NE
Meteor 2-2 Rocket 4.4 08:51:21 10° NNW 08:57:16 60° W 08:59:58 32° SSW
SL-16 R/B 3.0 08:55:50 34° SW 08:57:29 40° W 09:03:15 10° NNW
COSMOS 2428 4.3 08:54:57 12° SSE 08:59:13 28° ESE 09:03:57 10° NE
STARLINK-1012 3.5 08:58:20 53° SW 08:59:15 89° SE 09:03:24 10° NE
CZ-2D R/B 3.2 08:55:36 10° N 09:00:05 30° WNW 09:01:38 25° W
IRIDIUM 114 4.4 08:58:41 38° SSW 09:00:32 61° W 09:05:43 10° N
STARLINK-71 3.8 09:02:35 41° W 09:03:43 58° NW 09:07:42 10° NE
CBERS-1 4.3 09:01:08 10° N 09:06:07 53° WNW 09:08:08 33° SW
STARLINK-25 3.8 09:06:40 39° WNW 09:07:25 46° NW 09:10:46 10° NE
STARLINK-1026 3.6 09:07:52 42° WSW 09:09:11 75° NW 09:13:20 10° NE
Elektron 1 4.3 09:11:20 45° WSW 09:12:11 68° NW 09:16:59 10° NNE
ERS-2 3.6 09:08:53 10° SE 09:12:17 37° ENE 09:15:41 10° N
STARLINK-1013 3.7 09:12:40 37° WSW 09:14:11 68° NW 09:18:19 10° NE
Cosmos 2360 Rocket 2.3 09:12:49 30° SW 09:15:33 62° WNW 09:21:09 10° NNE
SL-4 R/B 2.2 09:12:10 10° NW 09:16:57 76° SW 09:21:28 10° SE
Cosmos 1606 4.3 09:13:35 10° NNE 09:17:01 33° ENE 09:20:28 10° SE
Cosmos 1892 3.9 09:16:50 25° W 09:17:12 26° WNW 09:20:25 10° NNW
SL-24 DEB 4.3 09:13:57 10° N 09:18:34 78° E 09:21:46 20° S
STARLINK-1009 3.8 09:17:27 32° WSW 09:19:10 62° NW 09:23:17 10° NE
Cosmos 2366 rocket 4.0 09:16:20 17° S 09:21:14 84° E 09:27:35 10° N
STARLINK-1015 4.0 09:22:13 28° WSW 09:24:08 56° NW 09:28:14 10° NE
USA 215 4.3 09:24:21 22° WSW 09:24:22 22° WSW 09:29:15 10° WNW
CZ-2C R/B 3.7 09:24:38 10° NNE 09:28:17 44° E 09:31:34 13° S
STARLINK-1016 4.1 09:27:00 25° WSW 09:29:08 51° NW 09:33:11 10° NE
Cosmos 2333 Rocket 2.5 09:25:41 17° S 09:30:00 63° ESE 09:35:37 10° NNE
Cosmos 1408 Rocket 4.1 09:28:38 12° S 09:32:33 54° E 09:36:45 10° NNE
Cosmos 2219 Rocket 2.5 09:28:31 16° S 09:32:57 62° ESE 09:38:29 10° NNE
CZ-2D R/B 3.5 09:29:29 10° NNE 09:33:47 90° WNW 09:36:57 19° SSW
STARLINK-52 3.3 09:30:51 10° NW 09:34:03 66° NE 09:37:12 10° SE
STARLINK-1008 4.3 09:31:48 22° W 09:34:08 46° NW 09:38:09 10° NE
Cosmos 2322 3.7 09:31:19 21° SSW 09:35:13 80° WNW 09:40:59 10° NNE
ADEOS II 2.9 09:31:35 10° N 09:36:22 36° WNW 09:39:20 20° WSW
STARLINK-1014 4.4 09:36:36 19° W 09:39:08 42° NW 09:43:04 10° NE
IDEFIX/ARIANE 42P 2.7 09:34:19 10° NNE 09:39:35 74° ESE 09:44:41 11° S
STARLINK-1035 4.5 09:38:56 19° SSW 09:41:28 40° SE 09:45:22 10° ENE
Cosmos 1408 4.1 09:41:10 19° W 09:42:08 21° WNW 09:44:59 10° NNW
ATLAS 5 CENTAUR R/B 2.9 09:39:18 11° S 09:42:42 30° ESE 09:46:28 10° NE
Lacrosse 5 rocket 1.7 09:40:12 20° SSW 09:42:46 54° SE 09:46:37 10° NE
ARIANE 5 R/B 2.8 09:38:25 10° N 09:43:15 51° WNW 09:46:43 18° SW
Cosmos 2263 Rocket 3.7 09:40:03 10° WNW 09:43:19 16° W 09:44:02 16° WSW
Cosmos 2333 4.2 09:40:38 19° SSW 09:44:42 70° WNW 09:50:19 10° NNE
Cosmos 2151 3.7 09:43:27 21° SW 09:45:40 36° WNW 09:49:38 10° N
STARLINK-1032 4.3 09:43:41 18° SSW 09:46:24 45° SE 09:50:21 10° ENE
Cosmos 1151 Rocket 3.2 09:42:34 10° N 09:46:58 78° E 09:51:20 10° S
Cosmos 2344 4.0 09:40:23 11° SSW 09:47:43 58° ESE 09:55:11 10° NE
H-2A R/B 2.1 09:44:52 10° SSE 09:49:16 88° W 09:53:47 10° NNW
STARLINK-1037 4.2 09:46:35 18° SSW 09:49:23 48° SE 09:53:23 10° ENE
Cosmos 1766 Rocket 3.8 09:47:43 18° SSW 09:50:40 49° W 09:54:53 10° N
Cosmos 1727 Rocket 4.0 09:44:51 10° N 09:51:04 84° E 09:57:14 10° S
Cosmos 1825 3.4 09:49:31 19° WSW 09:51:07 25° WNW 09:54:17 10° NNW
STARLINK-1011 4.2 09:48:29 17° SSW 09:51:22 50° SE 09:55:23 10° ENE
Cosmos 1680 Rocket 4.3 09:49:28 10° S 09:54:31 50° ESE 09:59:38 10° NNE
Okean 3 Rocket 4.3 09:51:42 18° SW 09:54:40 38° WNW 09:58:56 10° N
STARLINK-1036 4.0 09:53:16 17° SSW 09:56:20 56° SE 10:00:23 10° NE
Cosmos 1844 3.7 09:53:18 10° NNW 09:59:08 83° WSW 10:04:53 10° SSE
COBE Rocket 4.5 09:55:09 10° SSW 09:59:52 40° W 10:04:42 10° NNW
Cosmos 1515 Rocket 4.1 09:55:45 10° N 10:00:05 60° E 10:04:20 10° SSE
CZ-4C R/B 3.0 09:56:54 10° S 10:00:30 72° WSW 10:04:08 10° NNW
Shenzhou-11 Module 3.2 09:58:42 10° NW 10:00:57 32° NNE 10:03:13 10° E
Cosmos 923 Rocket 4.1 09:55:47 10° SSW 10:00:58 79° ESE 10:06:11 10° NNE
STARLINK-1044 3.9 09:58:03 15° SSW 10:01:17 63° SE 10:05:23 10° NE
STARLINK-60 4.4 09:59:15 10° W 10:01:33 18° SW 10:03:51 10° S
Cosmos 2322 Rocket 4.2 09:59:58 10° W 10:02:50 14° NW 10:05:42 10° NNW
Cosmos 1346 Rocket 4.0 10:00:38 10° SSE 10:04:23 41° E 10:08:08 10° NNE
Meteor 2-3 Rocket 3.7 09:59:39 10° SSW 10:05:14 80° W 10:10:51 10° N
STARLINK-1047 3.7 10:02:50 14° SW 10:06:16 70° SE 10:10:24 10° NE
FALCON 9 DEB 3.1 10:04:22 10° NW 10:07:49 87° NE 10:11:17 10° SE
Cosmos 1340 2.6 10:09:00 10° S 10:12:46 89° WNW 10:16:33 10° N
SL-08 R/B 4.5 10:09:52 11° SW 10:13:16 23° W 10:16:56 10° NW
STARLINK-1059 3.6 10:12:23 12° SW 10:16:12 86° SE 10:20:21 10° NE
STARLINK-1057 3.6 10:17:11 11° SW 10:21:11 86° NW 10:25:21 10° NE
Iridium 4 Rocket 3.8 10:16:25 10° S 10:21:21 73° E 10:26:48 10° N
Cosmos 1743 Rocket 3.5 10:18:49 10° S 10:23:13 77° W 10:27:35 10° N
Cosmos 1818 3.7 10:20:16 10° SW 10:25:38 67° WNW 10:31:04 10° NNE
STARLINK-1034 3.7 10:22:02 10° SW 10:26:10 78° NW 10:30:19 10° NE
PAYLOAD A 4.0 10:22:36 10° NNE 10:27:23 84° ESE 10:32:18 10° SSW
CZ-3A R/B 4.3 10:24:25 10° SSW 10:29:57 25° SE 10:45:14 10° E
Cosmos 2237 Rocket 2.7 10:24:35 10° S 10:30:09 64° ESE 10:35:48 10° NNE
STARLINK-1352 4.5 10:27:03 10° NW 10:30:59 54° NE 10:34:52 10° ESE
STARLINK-1068 3.7 10:27:01 10° SW 10:31:09 71° NW 10:35:17 10° NE
Cosmos 1933 4.2 10:29:03 10° NNW 10:32:37 31° W 10:36:10 10° SSW
NOSS 3-3 (A) 4.0 10:27:25 10° SSW 10:33:06 81° ESE 10:39:27 10° NE
NOSS 3-3 (C) 4.0 10:27:30 10° SSW 10:33:12 80° ESE 10:39:34 10° NE
STARLINK-29 4.3 10:32:17 10° W 10:34:38 19° SW 10:36:59 10° S
STARLINK-1027 3.8 10:32:02 10° WSW 10:36:08 64° NW 10:40:15 10° NE
